KC3OXK Weather Reports


time (UTC)temp
F
wind
direction
speed
knots
gust
knots
rain 1hr
in
rain 24hr
in
rain mn
in
humidity
%
barometer
mb
20260509211530 59 205 3.5 6.1 0.00 0.34 0.34 85 1009.7
20260509210030 58 237 1.7 5.2 0.00 0.34 0.34 87 1009.9
20260509204531 57 237 1.7 3.5 0.00 0.34 0.34 89 1009.9
20260509203030 55 174 0.9 3.5 0.00 0.34 0.34 92 1010.0
20260509201527 55 274 0.0 3.5 0.02 0.34 0.34 91 1010.0
20260509200032 55 170 1.7 4.3 0.03 0.34 0.34 91 1010.1
20260509194530 55 234 2.6 5.2 0.04 0.34 0.34 91 1010.1
20260509193030 55 252 2.6 5.2 0.04 0.34 0.34 91 1010.5
20260509191528 55 240 2.6 6.1 0.03 0.32 0.32 91 1010.6
20260509190040 54 228 0.9 3.5 0.03 0.31 0.31 91 1010.7
20260509184536 54 238 1.7 5.2 0.05 0.30 0.30 91 1010.6
20260509183037 54 241 3.5 8.7 0.08 0.30 0.30 91 1010.7
20260509181531 54 214 1.7 5.2 0.10 0.29 0.29 91 1010.7
20260509180030 53 172 4.3 7.0 0.11 0.28 0.28 91 1010.9
20260509174530 54 207 2.6 5.2 0.11 0.25 0.25 91 1011.2
20260509173038 53 253 4.3 9.6 0.10 0.22 0.22 90 1011.1
20260509171537 53 236 4.3 7.0 0.07 0.19 0.19 90 1011.3
20260509170036 54 246 3.5 7.8 0.05 0.16 0.16 90 1011.2
20260509164529 54 184 4.3 7.0 0.05 0.13 0.13 90 1011.2
20260509163029 54 245 3.5 5.2 0.06 0.12 0.12 90 1011.2
20260509161530 54 168 2.6 6.1 0.07 0.12 0.12 90 1011.1
20260509160028 53 218 3.5 5.2 0.08 0.11 0.11 90 1011.6
20260509154528 53 257 3.5 6.1 0.05 0.08 0.08 90 1011.7
20260509153032 53 207 3.5 7.8 0.03 0.06 0.06 90 1011.7
20260509151527 53 219 2.6 5.2 0.01 0.04 0.04 89 1011.7
20260509150032 54 195 1.7 5.2 0.01 0.03 0.03 89 1011.5
20260509144530 54 180 0.9 3.5 0.01 0.03 0.03 89 1011.5
20260509143028 53 219 1.7 3.5 0.01 0.03 0.03 89 1011.5
20260509141535 53 255 0.0 1.7 0.01 0.03 0.03 89 1011.4
20260509140034 52 176 0.9 3.5 0.00 0.02 0.02 89 1011.5
20260509134543 52 213 0.0 1.7 0.01 0.02 0.02 89 1011.5
20260509133033 52 0 0.0 1.7 0.02 0.02 0.02 89 1011.4
20260509131550 52 207 0.0 0.9 0.02 0.02 0.02 90 1011.3
20260509130043 52 238 0.0 2.6 0.02 0.02 0.02 90 1011.6
20260509124539 52 236 1.7 4.3 0.01 0.01 0.01 89 1011.9
20260509123031 52 218 2.6 3.5 0.00 0.00 0.00 89 1011.6
20260509121531 52 240 0.0 2.6 0.00 0.00 0.00 90 1011.5
20260509120028 51 224 1.7 3.5 0.00 0.00 0.00 90 1011.6
20260509114530 51 243 0.9 2.6 0.00 0.00 0.00 90 1011.3
20260509113030 51 0 0.0 1.7 0.00 0.00 0.00 90 1011.2
20260509111527 51 263 0.0 1.7 0.00 0.00 0.00 91 1011.2
20260509110030 50 0 0.0 0.9 0.00 0.00 0.00 91 1010.6
20260509104528 49 0 0.0 0.9 0.00 0.00 0.00 91 1010.6
20260509103031 50 343 0.0 0.9 0.00 0.00 0.00 91 1011.0
20260509101530 49 0 0.0 0.9 0.00 0.00 0.00 90 1011.1
20260509100035 50 0 0.0 0.9 0.00 0.00 0.00 90 1011.1
20260509094530 50 346 0.0 0.9 0.00 0.00 0.00 90 1011.1
20260509093030 50 0 0.0 0.9 0.00 0.00 0.00 90 1011.0
20260509091529 50 0 0.0 0.0 0.00 0.00 0.00 89 1011.3
20260509090030 49 0 0.0 0.0 0.00 0.00 0.00 90 1011.2
20260509084532 49 0 0.0 0.0 0.00 0.00 0.00 90 1011.2
20260509083029 49 0 0.0 0.9 0.00 0.00 0.00 90 1011.2
20260509081539 49 304 0.0 0.9 0.00 0.00 0.00 90 1011.2
20260509080031 50 0 0.0 0.9 0.00 0.00 0.00 90 1011.3
20260509074528 50 0 0.0 0.9 0.00 0.00 0.00 91 1011.5
20260509073027 49 0 0.0 0.9 0.00 0.00 0.00 90 1011.8
20260509071530 49 0 0.0 0.9 0.00 0.00 0.00 90 1011.9
20260509070030 49 327 0.0 0.9 0.00 0.00 0.00 90 1011.9
20260509064530 50 342 0.0 0.9 0.00 0.00 0.00 90 1011.9
20260509063030 50 311 0.0 0.9 0.00 0.00 0.00 89 1012.2
20260509061529 51 1 0.0 0.0 0.00 0.00 0.00 90 1012.4
20260509060030 51 0 0.0 0.0 0.00 0.00 0.00 89 1012.4
20260509054539 51 0 0.0 0.9 0.00 0.00 0.00 89 1012.6
20260509053110 51 27 0.0 0.9 0.00 0.00 0.00 89 1012.6
20260509051533 51 0 0.0 0.0 0.00 0.00 0.00 88 1012.7
20260509050039 52 349 0.0 0.9 0.00 0.00 0.00 87 1013.0
20260509044530 52 0 0.0 0.0 0.00 0.00 0.00 88 1012.9
20260509043028 52 0 0.0 0.0 0.00 0.00 0.00 88 1012.7
20260509041528 52 0 0.0 0.9 0.00 0.00 0.00 87 1012.5
20260509040029 52 299 0.0 0.9 0.00 0.00 0.00 87 1012.7
20260509034530 52 238 0.0 1.7 0.00 0.00 0.00 87 1012.8
20260509033031 52 0 0.0 0.9 0.00 0.00 0.00 87 1012.5
20260509031532 52 342 0.0 0.9 0.00 0.00 0.00 85 1012.2
20260509030035 53 0 0.0 0.9 0.00 0.00 0.00 83 1012.5
20260509024532 53 0 0.0 0.9 0.00 0.00 0.00 82 1013.1
20260509023042 53 302 0.0 0.9 0.00 0.00 0.00 80 1012.8
20260509021530 53 301 0.0 0.9 0.00 0.00 0.00 81 1012.7
20260509020028 53 302 0.0 0.9 0.00 0.00 0.00 80 1012.4
20260509014534 53 0 0.0 0.9 0.00 0.00 0.00 80 1012.7
20260509013032 53 0 0.0 0.9 0.00 0.00 0.00 79 1012.6
20260509011533 53 0 0.0 0.9 0.00 0.00 0.00 79 1012.5
20260509010028 54 0 0.0 0.9 0.00 0.00 0.00 79 1012.1
20260509004533 54 0 0.0 0.9 0.00 0.00 0.00 79 1011.9
20260509003042 54 0 0.0 0.0 0.00 0.00 0.00 78 1012.0
20260509001527 54 0 0.0 0.0 0.00 0.00 0.00 77 1012.0
20260509000029 54 304 0.0 0.9 0.00 0.00 0.00 75 1011.8
20260508234532 55 320 0.0 0.9 0.00 0.00 0.00 75 1011.6
20260508233030 56 320 0.0 0.0 0.00 0.00 0.00 74 1011.2
20260508231530 56 0 0.0 0.0 0.00 0.00 0.00 72 1011.3
20260508230032 56 330 0.0 0.9 0.00 0.00 0.00 73 1011.4
20260508224534 55 0 0.0 0.0 0.00 0.00 0.00 72 1011.7
20260508223028 57 0 0.0 1.7 0.00 0.00 0.00 70 1011.5
20260508221528 58 210 0.9 5.2 0.00 0.00 0.00 64 1011.6
20260508220028 59 214 0.9 7.0 0.00 0.00 0.00 60 1011.3
20260508214532 59 0 0.0 0.9 0.00 0.00 0.00 65 1010.7
20260508213028 59 0 0.0 0.9 0.00 0.00 0.00 66 1010.8